SL-12 DEB, 43527

Orbit data source: Space-Track

SL-12 DEB, 43527 is space debris in HEO originally from a launch on Mon, 01 Mar 2010 UTC launched from the Tyuratam Missile And Space Complex (TTMTR). Debris objects in space refer to the collection of defunct objects orbiting the Earth. Examples of debris include non-operational satellites, rocket bodies, and fragments generated from explosions, collisions, or faulty payload assembly.

Loading next visibility...
SL-12 DEB details
Identifier
43527, 2010-007Z
Orbit
HEO
Last TLE update6 hours ago
Origin
Flag of CISVVKO VKS (CIS)
ManufacturerRKKE
MissionSpacecraft
Bus & MotorUnknown
MassUnknown
Launch date (UTC)
2010-03-01 (15 years ago)
Launch vehicleUnknown
Launch site
Tyuratam Missile And Space Complex (TTMTR)
Object type
Payload
Rocket body
Debris
Shape & HBRUnknown
Radar Cross SectionMedium (>0.1 m² and <1 m²)

Expand to show TLE details & history

TLE from 6 hours ago
0 SL-12 DEB
1 43527U 10007Z   24361.40205072  .00002477  00000-0  11545-1 0  9992
2 43527  64.9339  16.7927 5664030 319.2556   9.9041  4.26099095101036
Epoch: 2024-12-26T09:38Z
Definitive object data (Epoch: 2024-12-26T09:38:57.182Z)
Latitude-0.00023°
Longitude136.68687°
Altitude1,271.703 km
Speed8.912 km/s
True Right ascension01h 07m 13s
True Declination0° 00' 01"
Sunlit
Object was in daylight at TLE epoch
Visualization TLE readout
Latitude58.16555°
Longitude-174.66207°
Altitude7,239.458 km
Speed5.814 km/s
Apparent Right ascension03h 52m 48s
Apparent Declination32° 02' 00"
Sunlit
Object is in daylight
Visualization observer readout
Local Sidereal Time15:10:04
Azimuth350.521° N
Elevation-17.372°
Doppler factor1
Orbital elements
Apogee altitude18,794.846 km
Perigee altitude590.012 km
Semi-major axis16,070.566 km
Eccentricity0.566403
Inclination64.9339°
RAAN16.7927°
Arg. of periapsis319.2556°
True anomaly40.77676°
Mean anomaly9.9041°
Eccentric anomaly22.12844°
Mean motion1.06536 °/min
BSTAR0.011545
Orbital period337.91 mins
Loading maneuver chart data...
Loading historical data...
Loading historical data...
Loading historical data...
Loading historical data...
Loading historical data...
Loading historical data...
Loading historical data...

SL-12 DEB Visibility forecast

Observer location: undefined°, undefined

Span
Click to sort rows by Start time (UTC) header in descending order
Start Az.
Max El. time (UTC)
Max El. Az.
Max El.
End time (UTC)
End Az.
101 mins2024-12-26 16:28:00.135Z328.984° NNW2024-12-26 17:11:00.135Z310.849° NW16.473°2024-12-26 18:09:00.135Z292.641° NW
91 mins2024-12-27 02:38:00.135Z194.159° SSW2024-12-27 02:47:00.135Z122.684° SE44.38°2024-12-27 04:09:00.135Z38.664° NE
250 mins2024-12-27 08:35:00.135Z308.285° NW2024-12-27 10:26:00.135Z70.023° E42.724°2024-12-27 12:45:00.135Z156.314° SSE
63 mins2024-12-27 14:45:00.135Z330.461° NNW2024-12-27 15:48:00.135Z302.98° NW27.707°2024-12-27 15:48:00.135Z302.98° NW
|